Location: Unspecified
(0.0000°N, 0.0000°E)
Time: 00:05:04
(UTC+02:00)

Vanguard 1 Rocket - Visible Passes

Search period start: 19 October 2017 00:00
Search period end: 29 October 2017 00:00
Orbit: 655 x 4222 km, 34.3° (Epoch: 18 October)

Date Brightness Start Highest point End Pass type
(mag) Time Alt. Az. Time Alt. Az. Time Alt. Az.
19 Oct 11.1 01:44:51 10° SW 02:14:26 24° SE 02:21:53 10° ESE visible
19 Oct 9.7 04:18:31 10° SW 04:40:44 64° SSE 04:52:18 10° ENE visible
19 Oct 9.2 06:54:24 10° WSW 07:08:38 41° NW 07:16:19 10° NNE visible
19 Oct 11.6 21:51:57 10° SW 22:06:08 23° S 22:24:24 10° SE visible
20 Oct 11.4 00:29:03 10° SW 00:48:33 25° SSE 00:54:30 23° SSE visible
20 Oct 10.4 03:02:56 10° SW 03:27:21 47° SE 03:40:16 10° E visible
20 Oct 9.1 05:44:52 26° WSW 05:56:52 71° NW 06:06:32 10° NE visible
20 Oct 11.4 20:37:03 10° WSW 20:49:11 26° SSW 21:07:16 10° SE visible
20 Oct 11.6 23:13:10 10° SW 23:29:54 22° S 23:45:57 12° SE visible
21 Oct 11.1 01:47:36 10° SW 02:22:12 21° ESE 02:26:47 10° E visible
21 Oct 9.5 04:39:40 61° SW 04:44:03 80° SE 04:55:54 10° ENE visible
21 Oct 9.6 06:58:35 10° W 07:11:32 31° NW 07:19:05 10° NNE visible
21 Oct 11.6 21:57:26 10° SW 22:11:19 21° S 22:28:35 10° SE visible
22 Oct 11.3 00:32:30 10° SW 00:53:22 29° SSE 00:54:45 29° SSE visible
22 Oct 10.2 03:05:21 10° SW 03:34:10 51° ESE 03:44:16 10° ENE visible
22 Oct 9.3 05:51:36 34° W 05:59:47 56° NW 06:09:37 10° NE visible
22 Oct 11.5 20:42:24 10° SW 20:53:56 22° S 21:10:16 10° SE visible
22 Oct 11.5 23:17:31 10° SW 23:35:09 23° SSE 23:46:31 18° SE visible
23 Oct 11.1 01:50:12 10° SW 02:28:24 18° E 02:31:19 10° E visible
23 Oct 9.5 04:45:51 80° W 04:47:08 85° NW 04:59:16 10° NE visible
23 Oct 9.9 07:03:24 10° W 07:14:32 23° NW 07:21:38 10° N visible
23 Oct 11.6 22:02:37 10° SW 22:16:37 20° S 22:33:34 10° SE visible
24 Oct 11.2 00:35:33 10° SW 00:55:33 33° SSE 00:55:33 33° SSE visible
24 Oct 10.2 03:07:50 10° SW 03:39:53 47° ENE 03:47:59 10° ENE visible
24 Oct 9.6 05:57:17 36° W 06:02:37 44° NW 06:12:34 10° NNE visible
24 Oct 11.5 20:47:54 10° SW 20:58:55 19° S 21:13:49 10° SE visible
24 Oct 11.4 23:21:17 10° SSW 23:40:06 26° SSE 23:47:29 23° SE visible
25 Oct 11.2 01:52:43 10° SW 02:33:45 15° ENE 02:35:29 10° ENE visible
25 Oct 9.5 04:51:09 68° NNW 04:51:09 68° NNW 05:02:27 10° NE visible
25 Oct 10.1 07:09:00 10° WNW 07:17:44 17° NW 07:23:53 10° N visible
25 Oct 11.6 22:07:15 10° SSW 22:21:53 21° SSE 22:39:14 10° SE visible
26 Oct 11.1 00:38:20 10° SW 00:56:40 37° S 00:56:40 37° S visible
26 Oct 10.3 03:10:27 10° SW 03:44:52 40° ENE 03:51:26 10° NE visible
26 Oct 9.9 06:02:15 32° WNW 06:05:31 35° NW 06:15:21 10° NNE visible
26 Oct 11.6 20:53:18 10° SW 21:04:04 18° S 21:18:10 10° SE visible
26 Oct 11.2 23:24:34 10° SSW 23:44:40 30° SSE 23:48:41 29° SE visible
27 Oct 11.2 01:55:14 10° SW 02:38:28 13° ENE 02:39:20 10° ENE visible
27 Oct 9.7 04:55:50 52° N 04:55:50 52° N 05:05:29 10° NE visible
27 Oct 10.4 07:15:45 10° WNW 07:21:11 13° NW 07:25:33 10° NNW visible
27 Oct 11.5 22:11:15 10° SSW 22:26:55 23° SSE 22:40:46 15° SE visible
28 Oct 11.0 00:40:59 10° SW 00:57:59 41° S 00:57:59 41° S visible
28 Oct 10.4 03:13:16 10° SW 03:49:19 33° NE 03:54:42 10° NE visible
28 Oct 10.1 06:06:40 27° NW 06:08:33 27° NW 06:18:00 10° NNE visible
28 Oct 11.5 20:58:12 10° SSW 21:09:15 18° S 21:23:26 10° SE visible
